Tracking 29892 objects as of 21-Nov-2024
HD Live streaming from Space Station
objects crossing your sky now

FENGYUN 1C DEB

Track FENGYUN 1C DEB now!
10-day predictions


NORAD ID: 31033
Int'l Code: 1999-025BEB
Perigee: 699.0 km
Apogee: 921.4 km
Inclination: 98.4 °
Period: 100.9 minutes
Semi major axis: 7181 km
RCS: 0.0023 m2 (small)
Launch date: May 10, 1999
Source: People's Republic of China (PRC)
Launch site: Taiyaun Space Center, China (TSC)

Note: This is SATELLITE DEBRIS
Your satellite tracking list
Your tracking list is empty




NASA's NSSDC Master Catalog

Two Line Element Set (TLE):
1 31033U 99025BEB 24323.73392578  .00000682  00000-0  26465-3 0  9995
2 31033  98.3991 310.4369 0154849 174.0649 359.9986 14.26619615917972
Source of the keplerian elements: AFSPC